Meteo Giornale » Osservazioni meteo Italia » Ronchi Dei Legionari

ore: 05:50 - Osservazioni Meteo Ronchi Dei Legionari
Lat. 45° 49' N Lon. 13° 29' E Alt. 12 metri s.l.m.

sereno Europe/Rome

20 °C

Sereno

Temp. 24 Ore

19 °C

31 °C

Nord

5.5 Km/h

Dew point 20 °C

Umidità 100 %

Visibilità  10 Km

Il sole sorge alle ore 06:08

Il sole tramonta alle ore 20:11

Data e Ora Cielo e Fenomeni T °C DP °C Um. % Pres. hPa Vis. km Vento km/h
Oggi h: 05:50 sereno Sereno 20 20 100 1011 10 N 5.5
Oggi h: 05:20 poco_nuvoloso Poco Nuvoloso 21 20 94 1011 10 N/NE 7.4
Oggi h: 04:50 nuvoloso Nuvoloso 21 20 94 1012 10 N 5.5
Oggi h: 04:20 sereno Sereno 20 19 93 1012 10 N 3.7
Oggi h: 03:50 sereno Sereno 21 20 94 1012 10 N 3.7
Oggi h: 03:20 sereno Sereno 22 21 94 1012 10 N 5.5
Oggi h: 02:50 sereno Sereno 22 21 94 1012 10 N 5.5
Oggi h: 02:20 poco_nuvoloso Poco Nuvoloso 22 21 94 1012 8 N 3.7
Oggi h: 01:50 sereno Sereno 22 22 100 1012 9 N 3.7
Oggi h: 01:20 sereno Sereno 23 22 94 1012 10 N 3.7
Oggi h: 00:50 poco_nuvoloso Poco Nuvoloso 23 22 94 1012 10 N 7.4
Oggi h: 00:20 molto_nuvoloso Molto Nuvoloso 24 23 94 1012 10 E/SE 11.1
Ieri h: 23:50 molto_nuvoloso Molto Nuvoloso 24 23 94 1013 10 N 5.5
Ieri h: 23:20 molto_nuvoloso Molto Nuvoloso 24 23 94 1013 10 N 5.5
Ieri h: 22:50 coperto_pioggia Pioggia Debole 24 23 94 1013 10 N 5.5
Ieri h: 22:20 coperto Coperto 25 22 83 1014 10 N 1.8
Ieri h: 21:50 sereno Sereno 24 22 88 1014 10 N 3.7
Ieri h: 21:20 sereno Sereno 24 22 88 1013 10 N 3.7
Ieri h: 20:50 sereno Sereno 25 22 83 1012 10 N 3.7
Ieri h: 20:20 sereno Sereno 26 22 78 1011 10 N 5.5
Ieri h: 19:50 sereno Sereno 26 22 78 1011 10 S 7.4
Ieri h: 19:20 sereno Sereno 27 22 74 1011 10 S 9.3
Ieri h: 18:50 poco_nuvoloso Poco Nuvoloso 28 19 58 1011 10 S/SE 9.3
Ieri h: 18:20 sereno Sereno 28 19 58 1011 10 SO 7.4
Ieri h: 17:50 sereno Sereno 29 19 54 1012 10 O/SO 13
Ieri h: 17:20 sereno Sereno 30 19 51 1012 10 S/SO 14.8
Ieri h: 16:50 sereno Sereno 30 18 48 1012 10 S/SO 11.1
Ieri h: 16:20 sereno Sereno 31 18 45 1012 10 S 9.3
Ieri h: 15:50 sereno Sereno 31 18 45 1012 10 SO 9.3
Ieri h: 15:20 sereno Sereno 30 19 51 1013 10 N 5.5
Ieri h: 14:50 sereno Sereno 30 19 51 1013 10 SO 11.1
Ieri h: 14:20 sereno Sereno 29 19 54 1013 10 N 7.4
Ieri h: 13:50 poco_nuvoloso Poco Nuvoloso 29 20 58 1013 10 N 9.3
Ieri h: 13:20 poco_nuvoloso Poco Nuvoloso 29 20 58 1013 10 S 9.3
Ieri h: 12:50 nuvoloso Nuvoloso 28 20 61 1013 10 S 9.3
Ieri h: 12:20 molto_nuvoloso Molto Nuvoloso 29 20 58 1013 10 SO 7.4
Ieri h: 11:50 poco_nuvoloso Poco Nuvoloso 28 21 65 1014 10 S/SO 9.3
Ieri h: 11:20 nuvoloso Nuvoloso 28 21 65 1013 10 S/SO 11.1
Ieri h: 10:50 molto_nuvoloso Molto Nuvoloso 28 20 61 1013 10 N 5.5
Ieri h: 10:20 nuvoloso Nuvoloso 27 20 65 1013 10 O/SO 7.4
Ieri h: 09:50 poco_nuvoloso Poco Nuvoloso 26 21 73 1013 10 N 3.7
Ieri h: 09:20 sereno Sereno 26 20 69 1013 10 N 3.7
Ieri h: 08:50 nuvoloso Nuvoloso 25 20 73 1013 10 N 3.7
Ieri h: 08:20 poco_nuvoloso Poco Nuvoloso 24 20 78 1013 10 N 1.8
Ieri h: 07:50 sereno Sereno 22 19 83 1013 10 N 3.7
Ieri h: 07:20 sereno Sereno 20 19 93 1013 10 N 3.7
Ieri h: 06:50 sereno Sereno 19 18 93 1013 10 N 3.7